Denver, CO

12:23 AM MDT on April 24, 2017 (GMT -0600)
Denver International

Weather History for KDEN - February, 2014

Change the Weather History Date:

Wednesday, February 5, 2014

  Actual Average Record
Temperature  
Mean Temperature -10 °F 31 °F  
Max Temperature -1 °F 45 °F 76 °F (1963)
Min Temperature -19 °F 17 °F -24 °F (1989)
Degree Days  
Heating Degree Days 75 34  
Month to date heating degree days 291 170  
Since 1 July heating degree days 3788 3701  
Cooling Degree Days 0 0  
Month to date cooling degree days 0 0  
Year to date cooling degree days 0 0  
Moisture  
Dew Point -14 °F    
Average Humidity 81    
Maximum Humidity 92    
Minimum Humidity 69    
Precipitation  
Precipitation T in 0.01 in 0.67 in (1881)
Month to date precipitation 0.12 0.06  
Year to date precipitation 1.06 0.47  
Snow  
Snow T in - - ()
Month to date snowfall 2.4  
Since 1 July snowfall 24.8  
Snow Depth 2.00 in    
Sea Level Pressure  
Sea Level Pressure 30.52 in    
Wind  
Wind Speed 7 mph (East)    
Max Wind Speed 14 mph    
Max Gust Speed 16 mph    
Visibility 8 miles    
Events Fog    
T = Trace of Precipitation, MM = Missing Value Source: NWS Daily Summary

Daily Weather History Graph

Daily Weather History Graph

Search for Another Location

Airport or City:

Trip Planner

Search our weather history database for the weather conditions in past years. The results will help you decide how hot, cold, wet, or windy it might be!

Date:

Astronomy

Feb. 05, 2014 Rise Set
Actual Time 7:02 AM MST 5:23 PM MST
Civil Twilight 6:34 AM MST 5:51 PM MST
Nautical Twilight 6:02 AM MST 6:23 PM MST
Astronomical Twilight 5:30 AM MST 6:55 PM MST
Moon 10:19 AM MST (2/5) No Moon Set
Length of Visible Light 11h 16m
Length of Day
10h 20m
Waxing Crescent, 40% of the Moon is Illuminated
Feb 5
Waxing Crescent
Feb 6
First Quarter
Feb 14
Full
Feb 22
Last Quarter
Mar 1
New

Hourly Weather History & Observations

Time (MST) Temp. Windchill Dew Point Humidity Pressure Visibility Wind Dir Wind Speed Gust Speed Precip Events Conditions
12:53 AM -9.0 °F -22.3 °F -11.9 °F 87% 30.52 in 7.0 mi NE 5.8 mph - 0.00 in   Mostly Cloudy
1:53 AM -9.0 °F -18.2 °F -11.9 °F 87% 30.54 in 9.0 mi East 3.5 mph - N/A   Mostly Cloudy
2:53 AM -14.1 °F -28.3 °F -17.0 °F 87% 30.56 in 5.0 mi SSE 5.8 mph - N/A   Mostly Cloudy
3:53 AM -11.9 °F -25.7 °F -15.0 °F 86% 30.56 in 10.0 mi SE 5.8 mph - N/A   Mostly Cloudy
4:53 AM -14.1 °F -29.9 °F -17.0 °F 87% 30.59 in 10.0 mi SE 6.9 mph - N/A   Scattered Clouds
5:25 AM -18.0 °F -33.0 °F -23.1 °F 78% 30.25 in 10.0 mi SE 5.8 mph - N/A   Overcast
5:53 AM -16.1 °F -30.6 °F -20.0 °F 82% 30.61 in 10.0 mi SE 5.8 mph - N/A   Overcast
6:53 AM -16.1 °F -30.6 °F -20.9 °F 79% 30.62 in 10.0 mi SE 5.8 mph - N/A   Mostly Cloudy
7:12 AM -15.0 °F -25.0 °F -20.0 °F 78% 30.27 in 10.0 mi SE 3.5 mph - N/A   Scattered Clouds
7:28 AM -15.0 °F -27.4 °F -20.0 °F 78% 30.27 in 10.0 mi SE 4.6 mph - N/A   Mostly Cloudy
7:53 AM -16.6 °F -34.4 °F -23.8 °F 70% 30.64 in 3.0 mi SSE 8.1 mph - N/A Fog Patches of Fog
8:53 AM -11.9 °F -27.3 °F -17.0 °F 78% 30.64 in 7.0 mi SE 6.9 mph - N/A   Mostly Cloudy
9:53 AM -7.1 °F -18.1 °F -11.9 °F 79% 30.62 in 6.0 mi SE 4.6 mph - N/A   Haze
10:51 AM -4.0 °F -16.3 °F -9.4 °F 78% 30.27 in 8.0 mi ESE 5.8 mph - N/A   Scattered Clouds
10:53 AM -4.0 °F -16.3 °F -9.0 °F 79% 30.60 in 8.0 mi ESE 5.8 mph - N/A   Scattered Clouds
11:53 AM -2.0 °F -10.1 °F -8.0 °F 76% 30.58 in 10.0 mi ENE 3.5 mph - N/A   Partly Cloudy
12:53 PM -2.0 °F -16.6 °F -9.0 °F 72% 30.56 in 10.0 mi ENE 8.1 mph - N/A   Scattered Clouds
1:53 PM -2.0 °F -17.7 °F -9.0 °F 72% 30.54 in 10.0 mi NE 9.2 mph - N/A   Scattered Clouds
2:22 PM -0.9 °F -17.4 °F -9.0 °F 69% 30.20 in 5.0 mi NE 10.4 mph - N/A   Haze
2:46 PM -2.0 °F -18.7 °F -8.0 °F 76% 30.21 in 6.0 mi ENE 10.4 mph - N/A   Haze
2:53 PM -2.0 °F -18.7 °F -8.0 °F 76% 30.58 in 6.0 mi ENE 10.4 mph - N/A   Haze
3:53 PM -4.0 °F -22.1 °F -9.9 °F 76% 30.58 in 10.0 mi NE 11.5 mph - N/A   Partly Cloudy
4:53 PM -7.1 °F -25.0 °F -11.9 °F 79% 30.60 in 4.0 mi NE 10.4 mph - N/A   Haze
5:14 PM -9.0 °F -26.4 °F -13.0 °F 83% 30.22 in 10.0 mi NE 9.2 mph - N/A   Scattered Clouds
5:53 PM -11.0 °F -28.8 °F -15.0 °F 83% 30.63 in 10.0 mi NE 9.2 mph - N/A   Mostly Cloudy
6:53 PM -11.9 °F -29.9 °F -16.1 °F 82% 30.63 in 10.0 mi NE 9.2 mph - N/A   Mostly Cloudy
7:53 PM -13.0 °F -28.6 °F -18.0 °F 78% 30.64 in 10.0 mi North 6.9 mph - N/A   Mostly Cloudy
8:53 PM -11.0 °F -22.8 °F -16.1 °F 78% 30.60 in 10.0 mi North 4.6 mph - N/A   Scattered Clouds
9:53 PM -11.0 °F -20.4 °F -16.1 °F 78% 30.56 in 6.0 mi SSW 3.5 mph - N/A   Scattered Clouds
10:53 PM -11.0 °F -26.2 °F -16.1 °F 78% 30.52 in 10.0 mi WSW 6.9 mph - N/A   Scattered Clouds
11:53 PM -11.9 °F -25.7 °F -17.0 °F 78% 30.50 in 10.0 mi SW 5.8 mph - N/A   Scattered Clouds